Time,TemperatureF,DewpointF,PressureIn,WindDirection,WindDirectionDegrees,WindSpeedMPH,WindSpeedGustMPH,Humidity,HourlyPrecipIn,Conditions,Clouds,dailyrainin,SoftwareType,DateUTC
2013-04-18 00:01:00,62.8,58.9,30.05,WSW,250,0.0,0.0,87,0.00,,---,0.00,VWS V14.01,2013-04-18 04:01:00,
2013-04-18 00:07:00,63.1,59.2,30.05,WSW,250,1.0,2.0,87,0.00,,---,0.00,VWS V14.01,2013-04-18 04:07:00,
2013-04-18 00:12:00,63.1,59.2,30.05,WSW,250,0.0,0.0,87,0.00,,---,0.00,VWS V14.01,2013-04-18 04:12:00,
2013-04-18 00:17:00,63.2,59.3,30.05,WSW,250,0.0,1.0,87,0.00,,---,0.00,VWS V14.01,2013-04-18 04:17:00,
2013-04-18 00:22:00,63.5,59.6,30.05,WSW,250,0.0,1.0,87,0.00,,---,0.00,VWS V14.01,2013-04-18 04:22:00,
2013-04-18 00:27:00,63.9,60.0,30.05,WSW,250,0.0,1.0,87,0.00,,---,0.00,VWS V14.01,2013-04-18 04:27:00,
2013-04-18 00:32:00,64.3,60.3,30.05,WSW,250,0.0,2.0,87,0.00,,---,0.00,VWS V14.01,2013-04-18 04:32:00,
2013-04-18 00:37:00,64.7,60.4,30.05,WSW,250,0.0,2.0,86,0.00,,---,0.00,VWS V14.01,2013-04-18 04:37:00,
2013-04-18 00:42:00,65.1,60.5,30.05,SSW,203,0.0,3.0,85,0.00,,---,0.00,VWS V14.01,2013-04-18 04:42:00,
2013-04-18 00:47:00,65.4,60.8,30.05,South,178,2.0,3.0,85,0.00,,---,0.00,VWS V14.01,2013-04-18 04:47:00,
2013-04-18 00:52:00,65.6,61.0,30.05,South,171,0.0,3.0,85,0.00,,---,0.00,VWS V14.01,2013-04-18 04:52:00,
2013-04-18 00:57:00,65.8,61.2,30.05,South,171,0.0,3.0,85,0.00,,---,0.00,VWS V14.01,2013-04-18 04:57:00,
2013-04-18 01:02:00,66.1,61.5,30.04,South,171,0.0,4.0,85,0.00,,---,0.00,VWS V14.01,2013-04-18 05:02:00,
2013-04-18 01:07:00,66.2,61.2,30.04,South,171,0.0,4.0,84,0.00,,---,0.00,VWS V14.01,2013-04-18 05:07:00,
2013-04-18 01:13:00,66.3,61.3,30.04,South,171,0.0,2.0,84,0.00,,---,0.00,VWS V14.01,2013-04-18 05:13:00,
2013-04-18 01:18:00,66.5,61.5,30.04,South,171,0.0,4.0,84,0.00,,---,0.00,VWS V14.01,2013-04-18 05:18:00,
2013-04-18 01:23:00,66.7,61.7,30.04,South,171,1.0,1.0,84,0.00,,---,0.00,VWS V14.01,2013-04-18 05:23:00,
2013-04-18 01:28:00,66.9,61.9,30.04,SSE,166,0.0,3.0,84,0.00,,---,0.00,VWS V14.01,2013-04-18 05:28:00,
2013-04-18 01:33:00,66.9,61.9,30.03,South,171,1.0,4.0,84,0.00,,---,0.00,VWS V14.01,2013-04-18 05:33:00,
2013-04-18 01:38:00,67.1,62.1,30.03,South,171,0.0,4.0,84,0.00,,---,0.00,VWS V14.01,2013-04-18 05:38:00,
2013-04-18 01:43:00,67.3,62.0,30.03,SE,142,2.0,4.0,83,0.00,,---,0.00,VWS V14.01,2013-04-18 05:43:00,
2013-04-18 01:48:00,67.3,62.0,30.03,SE,142,2.0,4.0,83,0.00,,---,0.00,VWS V14.01,2013-04-18 05:48:00,
2013-04-18 01:53:00,67.3,62.0,30.03,SE,142,0.0,3.0,83,0.00,,---,0.00,VWS V14.01,2013-04-18 05:53:00,
2013-04-18 01:58:00,67.2,62.2,30.03,SE,142,1.0,3.0,84,0.00,,---,0.00,VWS V14.01,2013-04-18 05:58:00,
2013-04-18 02:03:00,67.1,62.1,30.03,South,181,3.0,5.0,84,0.00,,---,0.00,VWS V14.01,2013-04-18 06:03:00,
2013-04-18 02:08:00,67.1,62.1,30.03,SSE,161,1.0,5.0,84,0.00,,---,0.00,VWS V14.01,2013-04-18 06:08:00,
2013-04-18 02:13:00,67.1,62.1,30.03,South,182,0.0,5.0,84,0.00,,---,0.00,VWS V14.01,2013-04-18 06:13:00,
2013-04-18 02:19:00,67.0,62.3,30.03,SSE,165,0.0,5.0,85,0.00,,---,0.00,VWS V14.01,2013-04-18 06:19:00,
2013-04-18 02:24:00,66.9,62.2,30.03,SSE,147,0.0,3.0,85,0.00,,---,0.00,VWS V14.01,2013-04-18 06:24:00,
2013-04-18 02:29:00,66.8,62.2,30.03,SSE,163,1.0,4.0,85,0.00,,---,0.00,VWS V14.01,2013-04-18 06:29:00,
2013-04-18 02:34:00,66.8,62.5,30.03,South,186,0.0,5.0,86,0.00,,---,0.00,VWS V14.01,2013-04-18 06:34:00,
2013-04-18 02:39:00,66.7,62.4,30.03,SSE,153,1.0,5.0,86,0.00,,---,0.00,VWS V14.01,2013-04-18 06:39:00,
2013-04-18 02:44:00,66.6,62.3,30.03,ESE,121,4.0,4.0,86,0.00,,---,0.00,VWS V14.01,2013-04-18 06:44:00,
2013-04-18 02:49:00,66.6,62.6,30.03,ESE,119,1.0,4.0,87,0.00,,---,0.00,VWS V14.01,2013-04-18 06:49:00,
2013-04-18 02:54:00,66.4,62.4,30.03,SE,125,0.0,3.0,87,0.00,,---,0.00,VWS V14.01,2013-04-18 06:54:00,
2013-04-18 02:59:00,66.3,62.3,30.03,SE,127,0.0,3.0,87,0.00,,---,0.00,VWS V14.01,2013-04-18 06:59:00,
2013-04-18 03:04:00,66.2,62.2,30.03,SE,127,0.0,3.0,87,0.00,,---,0.00,VWS V14.01,2013-04-18 07:04:00,
2013-04-18 03:09:00,66.2,62.5,30.03,SE,127,0.0,3.0,88,0.00,,---,0.00,VWS V14.01,2013-04-18 07:09:00,
2013-04-18 03:14:00,66.1,62.5,30.03,SE,127,0.0,2.0,88,0.00,,---,0.00,VWS V14.01,2013-04-18 07:14:00,
2013-04-18 03:20:00,65.9,62.2,30.03,SE,127,0.0,2.0,88,0.00,,---,0.00,VWS V14.01,2013-04-18 07:20:00,
2013-04-18 03:25:00,65.8,62.5,30.03,SE,127,0.0,2.0,89,0.00,,---,0.00,VWS V14.01,2013-04-18 07:25:00,
2013-04-18 03:30:00,65.6,62.3,30.03,SE,127,1.0,2.0,89,0.00,,---,0.00,VWS V14.01,2013-04-18 07:30:00,
2013-04-18 03:35:00,65.6,62.3,30.03,SSE,150,0.0,4.0,89,0.00,,---,0.00,VWS V14.01,2013-04-18 07:35:00,
2013-04-18 03:40:00,65.4,62.1,30.03,SSE,150,0.0,0.0,89,0.00,,---,0.00,VWS V14.01,2013-04-18 07:40:00,
2013-04-18 03:45:00,65.3,62.0,30.03,SSE,150,0.0,1.0,89,0.00,,---,0.00,VWS V14.01,2013-04-18 07:45:00,
2013-04-18 03:50:00,65.0,61.7,30.03,SSE,150,0.0,0.0,89,0.00,,---,0.00,VWS V14.01,2013-04-18 07:50:00,
2013-04-18 03:55:00,65.0,62.0,30.03,SSE,150,0.0,3.0,90,0.00,,---,0.00,VWS V14.01,2013-04-18 07:55:00,
2013-04-18 04:00:00,64.8,61.8,30.03,SSE,150,2.0,2.0,90,0.00,,---,0.00,VWS V14.01,2013-04-18 08:00:00,
2013-04-18 04:05:00,64.7,61.7,30.03,SSE,150,4.0,4.0,90,0.00,,---,0.00,VWS V14.01,2013-04-18 08:05:00,
2013-04-18 04:10:00,64.6,61.6,30.03,SSE,150,0.0,1.0,90,0.00,,---,0.00,VWS V14.01,2013-04-18 08:10:00,
2013-04-18 04:15:00,64.5,61.5,30.03,SSE,150,0.0,3.0,90,0.00,,---,0.00,VWS V14.01,2013-04-18 08:15:00,
2013-04-18 04:20:00,64.4,61.4,30.03,SSW,192,0.0,2.0,90,0.00,,---,0.00,VWS V14.01,2013-04-18 08:20:00,
2013-04-18 04:25:00,64.4,61.4,30.03,SSW,192,1.0,4.0,90,0.00,,---,0.00,VWS V14.01,2013-04-18 08:25:00,
2013-04-18 04:30:00,64.2,61.2,30.04,South,190,0.0,3.0,90,0.00,,---,0.00,VWS V14.01,2013-04-18 08:30:00,
2013-04-18 04:35:00,64.1,61.1,30.04,South,175,1.0,3.0,90,0.00,,---,0.00,VWS V14.01,2013-04-18 08:35:00,
2013-04-18 04:40:00,64.0,61.0,30.04,South,180,0.0,0.0,90,0.00,,---,0.00,VWS V14.01,2013-04-18 08:40:00,
2013-04-18 04:46:00,63.9,60.9,30.04,South,180,0.0,1.0,90,0.00,,---,0.00,VWS V14.01,2013-04-18 08:46:00,
2013-04-18 04:51:00,63.8,60.8,30.04,SSE,165,2.0,3.0,90,0.00,,---,0.00,VWS V14.01,2013-04-18 08:51:00,
2013-04-18 04:56:00,63.8,60.8,30.04,SSE,165,0.0,3.0,90,0.00,,---,0.00,VWS V14.01,2013-04-18 08:56:00,
2013-04-18 05:01:00,63.7,60.7,30.04,SSE,165,0.0,2.0,90,0.00,,---,0.00,VWS V14.01,2013-04-18 09:01:00,
2013-04-18 05:06:00,63.6,60.6,30.04,SSE,165,0.0,2.0,90,0.00,,---,0.00,VWS V14.01,2013-04-18 09:06:00,
2013-04-18 05:11:00,63.5,60.8,30.04,SSE,165,0.0,1.0,91,0.00,,---,0.00,VWS V14.01,2013-04-18 09:11:00,
2013-04-18 05:16:00,63.6,60.6,30.04,SSE,165,0.0,2.0,90,0.00,,---,0.00,VWS V14.01,2013-04-18 09:16:00,
2013-04-18 05:21:00,63.6,60.6,30.04,SSE,165,0.0,1.0,90,0.00,,---,0.00,VWS V14.01,2013-04-18 09:21:00,
2013-04-18 05:26:00,63.7,60.7,30.04,SSE,165,1.0,4.0,90,0.00,,---,0.00,VWS V14.01,2013-04-18 09:26:00,
2013-04-18 05:32:00,63.8,60.8,30.04,South,169,0.0,4.0,90,0.00,,---,0.00,VWS V14.01,2013-04-18 09:32:00,
2013-04-18 05:37:00,63.8,60.5,30.04,South,169,0.0,4.0,89,0.00,,---,0.00,VWS V14.01,2013-04-18 09:37:00,
2013-04-18 05:42:00,63.7,60.4,30.04,South,169,0.0,0.0,89,0.00,,---,0.00,VWS V14.01,2013-04-18 09:42:00,
2013-04-18 05:47:00,63.7,60.4,30.05,South,169,0.0,1.0,89,0.00,,---,0.00,VWS V14.01,2013-04-18 09:47:00,
2013-04-18 05:52:00,63.7,60.4,30.05,South,169,0.0,1.0,89,0.00,,---,0.00,VWS V14.01,2013-04-18 09:52:00,
2013-04-18 05:57:00,63.7,60.4,30.05,South,169,0.0,3.0,89,0.00,,---,0.00,VWS V14.01,2013-04-18 09:57:00,
2013-04-18 06:02:00,63.7,60.4,30.06,South,169,0.0,3.0,89,0.00,,---,0.00,VWS V14.01,2013-04-18 10:02:00,
2013-04-18 06:07:00,63.7,60.4,30.06,SSE,155,0.0,3.0,89,0.00,,---,0.00,VWS V14.01,2013-04-18 10:07:00,
2013-04-18 06:12:00,63.7,60.4,30.06,SSE,155,0.0,3.0,89,0.00,,---,0.00,VWS V14.01,2013-04-18 10:12:00,
2013-04-18 06:17:00,63.7,60.4,30.05,SSE,155,2.0,4.0,89,0.00,,---,0.00,VWS V14.01,2013-04-18 10:17:00,
2013-04-18 06:22:00,63.6,60.0,30.05,SSE,155,0.0,3.0,88,0.00,,---,0.00,VWS V14.01,2013-04-18 10:22:00,
2013-04-18 06:27:00,63.6,60.0,30.05,SSE,156,1.0,4.0,88,0.00,,---,0.00,VWS V14.01,2013-04-18 10:27:00,
2013-04-18 06:33:00,63.6,60.3,30.06,SSE,156,0.0,1.0,89,0.00,,---,0.00,VWS V14.01,2013-04-18 10:33:00,
2013-04-18 06:38:00,63.5,60.2,30.06,SSE,156,0.0,3.0,89,0.00,,---,0.00,VWS V14.01,2013-04-18 10:38:00,
2013-04-18 06:43:00,63.5,60.2,30.06,SSE,156,2.0,2.0,89,0.00,,---,0.00,VWS V14.01,2013-04-18 10:43:00,
2013-04-18 06:48:00,63.5,60.2,30.07,SE,134,0.0,4.0,89,0.00,,---,0.00,VWS V14.01,2013-04-18 10:48:00,
2013-04-18 06:53:00,63.5,60.2,30.07,South,169,5.0,5.0,89,0.00,,---,0.00,VWS V14.01,2013-04-18 10:53:00,
2013-04-18 06:58:00,63.5,59.9,30.07,South,172,2.0,5.0,88,0.00,,---,0.00,VWS V14.01,2013-04-18 10:58:00,
2013-04-18 07:03:00,63.6,60.0,30.07,SSE,165,2.0,4.0,88,0.00,,---,0.00,VWS V14.01,2013-04-18 11:03:00,
2013-04-18 07:08:00,63.6,60.0,30.07,SSE,163,0.0,4.0,88,0.00,,---,0.00,VWS V14.01,2013-04-18 11:08:00,
2013-04-18 07:13:00,63.6,60.0,30.07,SSE,158,1.0,3.0,88,0.00,,---,0.00,VWS V14.01,2013-04-18 11:13:00,
2013-04-18 07:18:00,63.6,60.0,30.07,South,175,2.0,6.0,88,0.00,,---,0.00,VWS V14.01,2013-04-18 11:18:00,
2013-04-18 07:23:00,63.7,60.1,30.07,South,173,0.0,6.0,88,0.00,,---,0.00,VWS V14.01,2013-04-18 11:23:00,
2013-04-18 07:29:00,63.6,60.0,30.07,ESE,114,2.0,6.0,88,0.00,,---,0.00,VWS V14.01,2013-04-18 11:29:00,
2013-04-18 07:34:00,63.6,60.3,30.07,South,169,2.0,5.0,89,0.00,,---,0.00,VWS V14.01,2013-04-18 11:34:00,
2013-04-18 07:39:00,63.5,60.2,30.07,South,179,4.0,5.0,89,0.00,,---,0.00,VWS V14.01,2013-04-18 11:39:00,
2013-04-18 07:44:00,63.4,60.1,30.08,South,169,3.0,5.0,89,0.00,,---,0.00,VWS V14.01,2013-04-18 11:44:00,
2013-04-18 07:49:00,63.3,60.3,30.08,SSW,193,0.0,6.0,90,0.00,,---,0.00,VWS V14.01,2013-04-18 11:49:00,
2013-04-18 07:54:00,63.3,60.3,30.08,SSW,202,1.0,6.0,90,0.00,,---,0.00,VWS V14.01,2013-04-18 11:54:00,
2013-04-18 07:59:00,63.2,60.2,30.09,SSW,199,4.0,6.0,90,0.00,,---,0.00,VWS V14.01,2013-04-18 11:59:00,
2013-04-18 08:04:00,63.3,60.3,30.09,SSW,196,2.0,5.0,90,0.00,,---,0.00,VWS V14.01,2013-04-18 12:04:00,
2013-04-18 08:09:00,63.4,60.4,30.09,SSW,196,2.0,5.0,90,0.00,,---,0.00,VWS V14.01,2013-04-18 12:09:00,
2013-04-18 08:14:00,63.5,60.5,30.09,SE,134,2.0,4.0,90,0.00,,---,0.00,VWS V14.01,2013-04-18 12:14:00,
2013-04-18 08:20:00,63.6,60.3,30.09,SSE,168,0.0,5.0,89,0.00,,---,0.00,VWS V14.01,2013-04-18 12:20:00,
2013-04-18 08:25:00,63.7,60.4,30.09,SSE,153,0.0,5.0,89,0.00,,---,0.00,VWS V14.01,2013-04-18 12:25:00,
2013-04-18 08:30:00,63.7,60.4,30.09,SSE,155,3.0,5.0,89,0.00,,---,0.00,VWS V14.01,2013-04-18 12:30:00,
2013-04-18 08:35:00,63.9,60.6,30.09,South,178,0.0,3.0,89,0.00,,---,0.00,VWS V14.01,2013-04-18 12:35:00,
2013-04-18 08:40:00,64.0,60.4,30.09,SSE,158,1.0,3.0,88,0.00,,---,0.00,VWS V14.01,2013-04-18 12:40:00,
2013-04-18 08:45:00,64.2,60.6,30.09,South,184,1.0,3.0,88,0.00,,---,0.00,VWS V14.01,2013-04-18 12:45:00,
2013-04-18 08:50:00,64.3,60.7,30.09,SSE,163,3.0,3.0,88,0.00,,---,0.00,VWS V14.01,2013-04-18 12:50:00,
2013-04-18 08:55:00,64.6,61.0,30.09,ESE,113,3.0,7.0,88,0.00,,---,0.00,VWS V14.01,2013-04-18 12:55:00,
2013-04-18 09:00:00,64.7,60.8,30.09,ESE,104,0.0,1.0,87,0.00,,---,0.00,VWS V14.01,2013-04-18 13:00:00,
2013-04-18 09:05:00,64.6,61.0,30.09,SE,138,0.0,6.0,88,0.00,,---,0.00,VWS V14.01,2013-04-18 13:05:00,
2013-04-18 09:10:00,64.6,61.0,30.09,SSE,163,3.0,4.0,88,0.00,,---,0.00,VWS V14.01,2013-04-18 13:10:00,
2013-04-18 09:15:00,64.7,60.8,30.09,SSW,198,2.0,6.0,87,0.00,,---,0.00,VWS V14.01,2013-04-18 13:15:00,
2013-04-18 09:20:00,64.9,60.9,30.09,East,97,0.0,5.0,87,0.00,,---,0.00,VWS V14.01,2013-04-18 13:20:00,
2013-04-18 09:25:00,64.9,60.9,30.09,South,186,1.0,7.0,87,0.00,,---,0.00,VWS V14.01,2013-04-18 13:25:00,
2013-04-18 09:30:00,65.1,61.1,30.09,SW,219,6.0,6.0,87,0.00,,---,0.00,VWS V14.01,2013-04-18 13:30:00,
2013-04-18 09:35:00,65.3,61.3,30.09,SSE,168,2.0,7.0,87,0.00,,---,0.00,VWS V14.01,2013-04-18 13:35:00,
2013-04-18 09:41:00,65.5,61.2,30.09,South,189,7.0,7.0,86,0.00,,---,0.00,VWS V14.01,2013-04-18 13:41:00,
2013-04-18 09:46:00,65.5,61.2,30.09,South,179,3.0,7.0,86,0.00,,---,0.00,VWS V14.01,2013-04-18 13:46:00,
2013-04-18 09:51:00,65.6,61.6,30.09,South,183,2.0,2.0,87,0.00,,---,0.00,VWS V14.01,2013-04-18 13:51:00,
2013-04-18 09:56:00,65.9,61.6,30.09,South,169,3.0,5.0,86,0.00,,---,0.00,VWS V14.01,2013-04-18 13:56:00,
2013-04-18 10:01:00,65.8,61.2,30.09,WSW,241,4.0,7.0,85,0.00,,---,0.00,VWS V14.01,2013-04-18 14:01:00,
2013-04-18 10:06:00,65.9,61.6,30.09,SSW,204,4.0,7.0,86,0.00,,---,0.00,VWS V14.01,2013-04-18 14:06:00,
2013-04-18 10:11:00,66.3,61.7,30.09,SSW,203,3.0,5.0,85,0.00,,---,0.00,VWS V14.01,2013-04-18 14:11:00,
2013-04-18 10:16:00,66.4,61.8,30.09,South,172,4.0,7.0,85,0.00,,---,0.00,VWS V14.01,2013-04-18 14:16:00,
2013-04-18 10:21:00,66.6,61.6,30.09,South,188,3.0,8.0,84,0.00,,---,0.00,VWS V14.01,2013-04-18 14:21:00,
2013-04-18 10:27:00,66.8,61.8,30.09,SSE,153,3.0,10.0,84,0.00,,---,0.00,VWS V14.01,2013-04-18 14:27:00,
2013-04-18 10:32:00,67.2,61.5,30.09,South,188,4.0,5.0,82,0.00,,---,0.00,VWS V14.01,2013-04-18 14:32:00,
2013-04-18 10:37:00,67.3,61.3,30.09,SSW,198,1.0,7.0,81,0.00,,---,0.00,VWS V14.01,2013-04-18 14:37:00,
2013-04-18 10:42:00,67.2,61.5,30.09,SSW,197,3.0,7.0,82,0.00,,---,0.00,VWS V14.01,2013-04-18 14:42:00,
2013-04-18 10:47:00,67.9,61.9,30.09,SSE,168,4.0,7.0,81,0.00,,---,0.00,VWS V14.01,2013-04-18 14:47:00,
2013-04-18 10:52:00,67.9,61.5,30.09,SSW,206,5.0,5.0,80,0.00,,---,0.00,VWS V14.01,2013-04-18 14:52:00,
2013-04-18 10:57:00,68.0,62.0,30.09,SSW,210,3.0,5.0,81,0.00,,---,0.00,VWS V14.01,2013-04-18 14:57:00,
2013-04-18 11:02:00,68.5,62.1,30.09,SSW,198,2.0,7.0,80,0.00,,---,0.00,VWS V14.01,2013-04-18 15:02:00,
2013-04-18 11:07:00,68.9,62.1,30.09,SSW,203,0.0,7.0,79,0.00,,---,0.00,VWS V14.01,2013-04-18 15:07:00,
2013-04-18 11:12:00,69.5,62.7,30.09,ESE,109,0.0,3.0,79,0.00,,---,0.00,VWS V14.01,2013-04-18 15:12:00,
2013-04-18 11:17:00,69.6,63.2,30.09,SSW,196,1.0,3.0,80,0.00,,---,0.00,VWS V14.01,2013-04-18 15:17:00,
2013-04-18 11:22:00,69.7,62.2,30.09,SSE,167,0.0,4.0,77,0.00,,---,0.00,VWS V14.01,2013-04-18 15:22:00,
2013-04-18 11:27:00,70.1,62.6,30.09,SSE,161,2.0,5.0,77,0.00,,---,0.00,VWS V14.01,2013-04-18 15:27:00,
2013-04-18 11:32:00,71.0,62.7,30.09,SW,219,3.0,5.0,75,0.00,,---,0.00,VWS V14.01,2013-04-18 15:32:00,
2013-04-18 11:38:00,70.9,62.2,30.09,ESE,122,5.0,7.0,74,0.00,,---,0.00,VWS V14.01,2013-04-18 15:38:00,
2013-04-18 11:43:00,70.7,62.0,30.09,SSW,192,4.0,4.0,74,0.00,,---,0.00,VWS V14.01,2013-04-18 15:43:00,
2013-04-18 11:48:00,71.2,62.1,30.08,SSE,147,0.0,7.0,73,0.00,,---,0.00,VWS V14.01,2013-04-18 15:48:00,
2013-04-18 11:53:00,71.5,62.0,30.08,SE,143,3.0,6.0,72,0.00,,---,0.00,VWS V14.01,2013-04-18 15:53:00,
2013-04-18 11:58:00,72.3,62.4,30.08,SE,135,3.0,10.0,71,0.00,,---,0.00,VWS V14.01,2013-04-18 15:58:00,
2013-04-18 12:03:00,72.5,61.8,30.07,SE,126,4.0,11.0,69,0.00,,---,0.00,VWS V14.01,2013-04-18 16:03:00,
2013-04-18 12:08:00,71.9,61.6,30.07,South,191,0.0,11.0,70,0.00,,---,0.00,VWS V14.01,2013-04-18 16:08:00,
2013-04-18 12:13:00,72.5,62.6,30.07,WSW,241,4.0,9.0,71,0.00,,---,0.00,VWS V14.01,2013-04-18 16:13:00,
2013-04-18 12:18:00,73.2,62.8,30.07,SE,138,5.0,9.0,70,0.00,,---,0.00,VWS V14.01,2013-04-18 16:18:00,
2013-04-18 12:23:00,73.7,61.7,30.07,SE,131,5.0,10.0,66,0.00,,---,0.00,VWS V14.01,2013-04-18 16:23:00,
2013-04-18 12:28:00,72.9,61.7,30.07,SSW,202,5.0,10.0,68,0.00,,---,0.00,VWS V14.01,2013-04-18 16:28:00,
2013-04-18 12:33:00,73.1,61.9,30.06,South,181,4.0,11.0,68,0.00,,---,0.00,VWS V14.01,2013-04-18 16:33:00,
2013-04-18 12:38:00,72.8,61.6,30.06,SE,143,3.0,11.0,68,0.00,,---,0.00,VWS V14.01,2013-04-18 16:38:00,
2013-04-18 12:44:00,73.3,61.7,30.06,ESE,113,3.0,9.0,67,0.00,,---,0.00,VWS V14.01,2013-04-18 16:44:00,
2013-04-18 12:49:00,73.4,61.8,30.06,SW,220,10.0,10.0,67,0.00,,---,0.00,VWS V14.01,2013-04-18 16:49:00,
2013-04-18 12:54:00,74.1,61.6,30.06,South,183,7.0,11.0,65,0.00,,---,0.00,VWS V14.01,2013-04-18 16:54:00,
2013-04-18 12:59:00,74.5,62.8,30.06,SW,223,5.0,11.0,67,0.00,,---,0.00,VWS V14.01,2013-04-18 16:59:00,
2013-04-18 13:04:00,74.4,60.5,30.06,SSW,192,7.0,15.0,62,0.00,,---,0.00,VWS V14.01,2013-04-18 17:04:00,
2013-04-18 13:09:00,73.7,60.8,30.06,South,182,3.0,15.0,64,0.00,,---,0.00,VWS V14.01,2013-04-18 17:09:00,
2013-04-18 13:14:00,73.7,60.8,30.06,SW,218,4.0,10.0,64,0.00,,---,0.00,VWS V14.01,2013-04-18 17:14:00,
2013-04-18 13:19:00,73.6,61.5,30.06,SSE,156,2.0,10.0,66,0.00,,---,0.00,VWS V14.01,2013-04-18 17:19:00,
2013-04-18 13:24:00,73.4,60.5,30.06,SE,139,3.0,9.0,64,0.00,,---,0.00,VWS V14.01,2013-04-18 17:24:00,
2013-04-18 13:29:00,73.6,62.0,30.04,SSW,199,6.0,12.0,67,0.00,,---,0.00,VWS V14.01,2013-04-18 17:29:00,
2013-04-18 13:34:00,73.7,60.3,30.04,SSE,164,2.0,11.0,63,0.00,,---,0.00,VWS V14.01,2013-04-18 17:34:00,
2013-04-18 13:39:00,75.2,61.8,30.04,SSW,192,3.0,11.0,63,0.00,,---,0.00,VWS V14.01,2013-04-18 17:39:00,
2013-04-18 13:44:00,75.0,61.1,30.04,SSE,163,2.0,6.0,62,0.00,,---,0.00,VWS V14.01,2013-04-18 17:44:00,
2013-04-18 13:49:00,75.4,60.1,30.04,SE,124,6.0,12.0,59,0.00,,---,0.00,VWS V14.01,2013-04-18 17:49:00,
2013-04-18 13:54:00,75.8,59.5,30.04,SE,138,2.0,13.0,57,0.00,,---,0.00,VWS V14.01,2013-04-18 17:54:00,
2013-04-18 13:59:00,76.3,59.5,30.03,SSE,151,3.0,13.0,56,0.00,,---,0.00,VWS V14.01,2013-04-18 17:59:00,
2013-04-18 14:05:00,76.4,58.5,30.03,South,180,5.0,12.0,54,0.00,,---,0.00,VWS V14.01,2013-04-18 18:05:00,
2013-04-18 14:10:00,76.4,58.5,30.03,SW,219,5.0,17.0,54,0.00,,---,0.00,VWS V14.01,2013-04-18 18:10:00,
2013-04-18 14:15:00,75.6,57.3,30.03,SSW,209,3.0,12.0,53,0.00,,---,0.00,VWS V14.01,2013-04-18 18:15:00,
2013-04-18 14:20:00,75.7,57.4,30.03,SSE,159,0.0,12.0,53,0.00,,---,0.00,VWS V14.01,2013-04-18 18:20:00,
2013-04-18 14:25:00,76.5,57.6,30.03,SE,146,2.0,12.0,52,0.00,,---,0.00,VWS V14.01,2013-04-18 18:25:00,
2013-04-18 14:30:00,77.7,57.6,30.03,SSE,159,2.0,13.0,50,0.00,,---,0.00,VWS V14.01,2013-04-18 18:30:00,
2013-04-18 14:35:00,76.4,55.8,30.03,SSE,152,4.0,12.0,49,0.00,,---,0.00,VWS V14.01,2013-04-18 18:35:00,
2013-04-18 14:40:00,77.0,58.0,30.03,SSW,211,4.0,6.0,52,0.00,,---,0.00,VWS V14.01,2013-04-18 18:40:00,
2013-04-18 14:45:00,76.4,58.0,30.03,SSE,152,3.0,9.0,53,0.00,,---,0.00,VWS V14.01,2013-04-18 18:45:00,
2013-04-18 14:50:00,76.6,58.2,30.03,East,101,5.0,8.0,53,0.00,,---,0.00,VWS V14.01,2013-04-18 18:50:00,
2013-04-18 14:55:00,76.9,57.4,30.03,South,186,6.0,11.0,51,0.00,,---,0.00,VWS V14.01,2013-04-18 18:55:00,
2013-04-18 15:00:00,77.3,56.7,30.02,SSE,163,3.0,7.0,49,0.00,,---,0.00,VWS V14.01,2013-04-18 19:00:00,
2013-04-18 15:05:00,77.1,58.7,30.02,SE,126,5.0,10.0,53,0.00,,---,0.00,VWS V14.01,2013-04-18 19:05:00,
2013-04-18 15:10:00,77.0,57.0,30.02,SSW,194,5.0,5.0,50,0.00,,---,0.00,VWS V14.01,2013-04-18 19:10:00,
2013-04-18 15:15:00,75.7,57.4,30.01,South,169,9.0,14.0,53,0.00,,---,0.00,VWS V14.01,2013-04-18 19:15:00,
2013-04-18 15:20:00,75.6,57.8,30.01,SW,216,6.0,13.0,54,0.00,,---,0.00,VWS V14.01,2013-04-18 19:20:00,
2013-04-18 15:25:00,77.1,58.7,30.01,SSW,209,6.0,15.0,53,0.00,,---,0.00,VWS V14.01,2013-04-18 19:25:00,
2013-04-18 15:30:00,76.5,57.0,30.01,SSE,158,3.0,12.0,51,0.00,,---,0.00,VWS V14.01,2013-04-18 19:30:00,
2013-04-18 15:35:00,77.2,57.1,30.01,SE,134,3.0,12.0,50,0.00,,---,0.00,VWS V14.01,2013-04-18 19:35:00,
2013-04-18 15:40:00,76.4,57.0,30.01,SE,136,6.0,13.0,51,0.00,,---,0.00,VWS V14.01,2013-04-18 19:40:00,
2013-04-18 15:46:00,76.6,57.7,30.00,SSW,211,1.0,13.0,52,0.00,,---,0.00,VWS V14.01,2013-04-18 19:46:00,
2013-04-18 15:51:00,76.2,58.4,30.00,South,187,4.0,6.0,54,0.00,,---,0.00,VWS V14.01,2013-04-18 19:51:00,
2013-04-18 15:56:00,76.5,57.6,30.00,SSW,198,3.0,11.0,52,0.00,,---,0.00,VWS V14.01,2013-04-18 19:56:00,
2013-04-18 16:01:00,77.0,57.0,29.99,SW,214,6.0,14.0,50,0.00,,---,0.00,VWS V14.01,2013-04-18 20:01:00,
2013-04-18 16:06:00,77.7,59.8,29.99,South,169,6.0,14.0,54,0.00,,---,0.00,VWS V14.01,2013-04-18 20:06:00,
2013-04-18 16:11:00,77.8,59.3,29.99,South,182,7.0,10.0,53,0.00,,---,0.00,VWS V14.01,2013-04-18 20:11:00,
2013-04-18 16:16:00,76.7,56.7,29.99,SSE,153,3.0,13.0,50,0.00,,---,0.00,VWS V14.01,2013-04-18 20:16:00,
2013-04-18 16:21:00,76.0,57.1,29.99,SSW,201,12.0,12.0,52,0.00,,---,0.00,VWS V14.01,2013-04-18 20:21:00,
2013-04-18 16:26:00,77.0,58.0,29.99,SSW,200,3.0,12.0,52,0.00,,---,0.00,VWS V14.01,2013-04-18 20:26:00,
2013-04-18 16:31:00,76.4,58.0,29.98,SSW,211,4.0,5.0,53,0.00,,---,0.00,VWS V14.01,2013-04-18 20:31:00,
2013-04-18 16:37:00,76.3,57.9,29.98,SSW,200,5.0,11.0,53,0.00,,---,0.00,VWS V14.01,2013-04-18 20:37:00,
2013-04-18 16:42:00,76.2,58.9,29.98,South,179,3.0,12.0,55,0.00,,---,0.00,VWS V14.01,2013-04-18 20:42:00,
2013-04-18 16:47:00,75.8,58.0,29.98,SSW,194,2.0,12.0,54,0.00,,---,0.00,VWS V14.01,2013-04-18 20:47:00,
2013-04-18 16:52:00,76.6,58.7,29.98,SSE,167,9.0,11.0,54,0.00,,---,0.00,VWS V14.01,2013-04-18 20:52:00,
2013-04-18 16:57:00,77.5,59.0,29.98,SSE,148,9.0,11.0,53,0.00,,---,0.00,VWS V14.01,2013-04-18 20:57:00,
2013-04-18 17:02:00,77.3,58.8,29.98,South,189,6.0,12.0,53,0.00,,---,0.00,VWS V14.01,2013-04-18 21:02:00,
2013-04-18 17:07:00,77.1,58.7,29.98,South,169,3.0,12.0,53,0.00,,---,0.00,VWS V14.01,2013-04-18 21:07:00,
2013-04-18 17:12:00,76.9,58.5,29.98,SE,138,4.0,9.0,53,0.00,,---,0.00,VWS V14.01,2013-04-18 21:12:00,
2013-04-18 17:17:00,77.2,59.3,29.97,SSE,150,10.0,10.0,54,0.00,,---,0.00,VWS V14.01,2013-04-18 21:17:00,
2013-04-18 17:22:00,77.2,58.8,29.97,SSE,161,4.0,7.0,53,0.00,,---,0.00,VWS V14.01,2013-04-18 21:22:00,
2013-04-18 17:27:00,77.4,59.5,29.97,SSW,207,6.0,7.0,54,0.00,,---,0.00,VWS V14.01,2013-04-18 21:27:00,
2013-04-18 17:33:00,76.9,58.5,29.96,SSE,150,6.0,10.0,53,0.00,,---,0.00,VWS V14.01,2013-04-18 21:33:00,
2013-04-18 17:38:00,76.8,58.4,29.96,SSE,154,3.0,14.0,53,0.00,,---,0.00,VWS V14.01,2013-04-18 21:38:00,
2013-04-18 17:43:00,76.8,58.9,29.96,SSE,162,5.0,10.0,54,0.00,,---,0.00,VWS V14.01,2013-04-18 21:43:00,
2013-04-18 17:48:00,76.9,59.0,29.95,WSW,241,7.0,13.0,54,0.00,,---,0.00,VWS V14.01,2013-04-18 21:48:00,
2013-04-18 17:53:00,76.8,59.4,29.95,SSW,213,1.0,9.0,55,0.00,,---,0.00,VWS V14.01,2013-04-18 21:53:00,
2013-04-18 17:58:00,76.3,58.5,29.95,ESE,116,2.0,10.0,54,0.00,,---,0.00,VWS V14.01,2013-04-18 21:58:00,
2013-04-18 18:03:00,76.5,59.2,29.95,SE,126,4.0,7.0,55,0.00,,---,0.00,VWS V14.01,2013-04-18 22:03:00,
2013-04-18 18:08:00,76.4,59.1,29.95,SE,144,4.0,9.0,55,0.00,,---,0.00,VWS V14.01,2013-04-18 22:08:00,
2013-04-18 18:13:00,76.2,58.9,29.95,SSE,152,3.0,10.0,55,0.00,,---,0.00,VWS V14.01,2013-04-18 22:13:00,
2013-04-18 18:18:00,76.4,59.1,29.94,SE,138,2.0,10.0,55,0.00,,---,0.00,VWS V14.01,2013-04-18 22:18:00,
2013-04-18 18:23:00,76.2,58.4,29.94,East,86,1.0,9.0,54,0.00,,---,0.00,VWS V14.01,2013-04-18 22:23:00,
2013-04-18 18:28:00,75.8,58.5,29.94,South,187,3.0,10.0,55,0.00,,---,0.00,VWS V14.01,2013-04-18 22:28:00,
2013-04-18 18:33:00,75.7,58.4,29.94,SSE,150,5.0,7.0,55,0.00,,---,0.00,VWS V14.01,2013-04-18 22:33:00,
2013-04-18 18:39:00,75.6,58.3,29.94,SSE,168,4.0,12.0,55,0.00,,---,0.00,VWS V14.01,2013-04-18 22:39:00,
2013-04-18 18:44:00,75.3,58.5,29.94,SW,215,3.0,6.0,56,0.00,,---,0.00,VWS V14.01,2013-04-18 22:44:00,
2013-04-18 18:49:00,75.2,58.9,29.94,SSE,157,2.0,6.0,57,0.00,,---,0.00,VWS V14.01,2013-04-18 22:49:00,
2013-04-18 18:54:00,75.0,58.8,29.94,SSE,167,1.0,4.0,57,0.00,,---,0.00,VWS V14.01,2013-04-18 22:54:00,
2013-04-18 18:59:00,74.8,59.0,29.93,SSE,163,0.0,4.0,58,0.00,,---,0.00,VWS V14.01,2013-04-18 22:59:00,
2013-04-18 19:04:00,74.5,59.2,29.93,South,182,0.0,6.0,59,0.00,,---,0.00,VWS V14.01,2013-04-18 23:04:00,
2013-04-18 19:09:00,74.5,58.8,29.93,SSW,206,1.0,8.0,58,0.00,,---,0.00,VWS V14.01,2013-04-18 23:09:00,
2013-04-18 19:14:00,74.5,59.2,29.93,SW,220,0.0,3.0,59,0.00,,---,0.00,VWS V14.01,2013-04-18 23:14:00,
2013-04-18 19:19:00,74.4,59.2,29.93,SE,139,2.0,4.0,59,0.00,,---,0.00,VWS V14.01,2013-04-18 23:19:00,
2013-04-18 19:25:00,74.2,59.0,29.93,SSE,164,1.0,3.0,59,0.00,,---,0.00,VWS V14.01,2013-04-18 23:25:00,
2013-04-18 19:30:00,74.1,58.9,29.93,SSW,194,4.0,4.0,59,0.00,,---,0.00,VWS V14.01,2013-04-18 23:30:00,
2013-04-18 19:35:00,73.9,59.2,29.93,South,182,0.0,4.0,60,0.00,,---,0.00,VWS V14.01,2013-04-18 23:35:00,
2013-04-18 19:40:00,73.7,59.0,29.93,SSE,153,1.0,5.0,60,0.00,,---,0.00,VWS V14.01,2013-04-18 23:40:00,
2013-04-18 19:45:00,73.7,59.4,29.93,SE,136,1.0,3.0,61,0.00,,---,0.00,VWS V14.01,2013-04-18 23:45:00,
2013-04-18 19:50:00,73.6,59.3,29.93,SE,136,0.0,1.0,61,0.00,,---,0.00,VWS V14.01,2013-04-18 23:50:00,
2013-04-18 19:55:00,73.4,59.2,29.93,SE,145,0.0,5.0,61,0.00,,---,0.00,VWS V14.01,2013-04-18 23:55:00,
2013-04-18 20:00:00,73.1,59.3,29.93,SE,145,0.0,1.0,62,0.00,,---,0.00,VWS V14.01,2013-04-19 00:00:00,
2013-04-18 20:05:00,73.0,59.7,29.93,SE,145,1.0,3.0,63,0.00,,---,0.00,VWS V14.01,2013-04-19 00:05:00,
2013-04-18 20:10:00,72.7,59.4,29.93,SE,145,1.0,2.0,63,0.00,,---,0.00,VWS V14.01,2013-04-19 00:10:00,
2013-04-18 20:15:00,72.5,59.6,29.93,SE,145,0.0,2.0,64,0.00,,---,0.00,VWS V14.01,2013-04-19 00:15:00,
2013-04-18 20:20:00,72.3,59.5,29.93,SE,145,0.0,1.0,64,0.00,,---,0.00,VWS V14.01,2013-04-19 00:20:00,
2013-04-18 20:26:00,72.1,59.7,29.93,South,179,4.0,4.0,65,0.00,,---,0.00,VWS V14.01,2013-04-19 00:26:00,
2013-04-18 20:31:00,72.2,59.8,29.93,SSW,196,0.0,3.0,65,0.00,,---,0.00,VWS V14.01,2013-04-19 00:31:00,
2013-04-18 20:36:00,72.2,59.8,29.93,South,182,1.0,5.0,65,0.00,,---,0.00,VWS V14.01,2013-04-19 00:36:00,
2013-04-18 20:41:00,72.2,59.8,29.93,SE,140,5.0,5.0,65,0.00,,---,0.00,VWS V14.01,2013-04-19 00:41:00,
2013-04-18 20:46:00,72.2,59.8,29.93,South,182,1.0,6.0,65,0.00,,---,0.00,VWS V14.01,2013-04-19 00:46:00,
2013-04-18 20:51:00,71.9,59.9,29.93,ESE,110,3.0,3.0,66,0.00,,---,0.00,VWS V14.01,2013-04-19 00:51:00,
2013-04-18 20:56:00,71.9,59.9,29.93,SSE,159,0.0,7.0,66,0.00,,---,0.00,VWS V14.01,2013-04-19 00:56:00,
2013-04-18 21:01:00,71.8,59.8,29.93,SSE,151,3.0,4.0,66,0.00,,---,0.00,VWS V14.01,2013-04-19 01:01:00,
2013-04-18 21:06:00,71.7,59.8,29.93,SSW,206,0.0,4.0,66,0.00,,---,0.00,VWS V14.01,2013-04-19 01:06:00,
2013-04-18 21:11:00,71.6,60.1,29.93,SSE,157,1.0,4.0,67,0.00,,---,0.00,VWS V14.01,2013-04-19 01:11:00,
2013-04-18 21:16:00,71.6,60.1,29.93,SSE,165,2.0,10.0,67,0.00,,---,0.00,VWS V14.01,2013-04-19 01:16:00,
2013-04-18 21:21:00,71.6,60.1,29.93,South,169,3.0,4.0,67,0.00,,---,0.00,VWS V14.01,2013-04-19 01:21:00,
2013-04-18 21:26:00,71.5,60.0,29.93,SSE,163,0.0,4.0,67,0.00,,---,0.00,VWS V14.01,2013-04-19 01:26:00,
2013-04-18 21:31:00,71.4,60.3,29.94,ESE,114,2.0,2.0,68,0.00,,---,0.00,VWS V14.01,2013-04-19 01:31:00,
2013-04-18 21:36:00,71.3,60.2,29.94,SE,138,9.0,10.0,68,0.00,,---,0.00,VWS V14.01,2013-04-19 01:36:00,
2013-04-18 21:41:00,71.3,60.2,29.94,SSE,167,0.0,4.0,68,0.00,,---,0.00,VWS V14.01,2013-04-19 01:41:00,
2013-04-18 21:47:00,71.1,60.0,29.93,SE,142,2.0,6.0,68,0.00,,---,0.00,VWS V14.01,2013-04-19 01:47:00,
2013-04-18 21:52:00,70.9,59.8,29.93,SSW,192,4.0,7.0,68,0.00,,---,0.00,VWS V14.01,2013-04-19 01:52:00,
2013-04-18 21:57:00,70.7,59.6,29.93,SE,141,4.0,9.0,68,0.00,,---,0.00,VWS V14.01,2013-04-19 01:57:00,
2013-04-18 22:02:00,70.6,60.0,29.93,SE,130,0.0,4.0,69,0.00,,---,0.00,VWS V14.01,2013-04-19 02:02:00,
2013-04-18 22:07:00,70.5,59.8,29.93,SSW,209,0.0,7.0,69,0.00,,---,0.00,VWS V14.01,2013-04-19 02:07:00,
2013-04-18 22:12:00,70.5,59.8,29.93,ESE,111,5.0,5.0,69,0.00,,---,0.00,VWS V14.01,2013-04-19 02:12:00,
2013-04-18 22:17:00,70.5,59.8,29.94,East,95,0.0,7.0,69,0.00,,---,0.00,VWS V14.01,2013-04-19 02:17:00,
2013-04-18 22:22:00,70.4,59.8,29.94,South,188,5.0,7.0,69,0.00,,---,0.00,VWS V14.01,2013-04-19 02:22:00,
2013-04-18 22:27:00,70.2,59.6,29.94,SSE,148,5.0,10.0,69,0.00,,---,0.00,VWS V14.01,2013-04-19 02:27:00,
2013-04-18 22:32:00,70.1,59.5,29.93,SE,142,4.0,6.0,69,0.00,,---,0.00,VWS V14.01,2013-04-19 02:32:00,
2013-04-18 22:38:00,70.0,59.4,29.93,SW,220,3.0,7.0,69,0.00,,---,0.00,VWS V14.01,2013-04-19 02:38:00,
2013-04-18 22:43:00,69.8,59.6,29.93,South,181,4.0,6.0,70,0.00,,---,0.00,VWS V14.01,2013-04-19 02:43:00,
2013-04-18 22:48:00,69.6,59.4,29.93,SW,232,0.0,6.0,70,0.00,,---,0.00,VWS V14.01,2013-04-19 02:48:00,
2013-04-18 22:53:00,69.4,59.2,29.93,South,186,1.0,7.0,70,0.00,,---,0.00,VWS V14.01,2013-04-19 02:53:00,
2013-04-18 22:58:00,69.2,59.0,29.93,East,86,3.0,11.0,70,0.00,,---,0.00,VWS V14.01,2013-04-19 02:58:00,
2013-04-18 23:03:00,69.1,58.9,29.93,ESE,111,4.0,7.0,70,0.00,,---,0.00,VWS V14.01,2013-04-19 03:03:00,
2013-04-18 23:08:00,68.8,59.0,29.93,SSW,200,3.0,7.0,71,0.00,,---,0.00,VWS V14.01,2013-04-19 03:08:00,
2013-04-18 23:13:00,68.7,58.9,29.93,SSW,201,2.0,6.0,71,0.00,,---,0.00,VWS V14.01,2013-04-19 03:13:00,
2013-04-18 23:18:00,68.6,59.2,29.93,ESE,103,3.0,9.0,72,0.00,,---,0.00,VWS V14.01,2013-04-19 03:18:00,
2013-04-18 23:23:00,68.5,59.1,29.93,SSE,161,3.0,10.0,72,0.00,,---,0.00,VWS V14.01,2013-04-19 03:23:00,
2013-04-18 23:28:00,68.4,59.4,29.93,SE,146,0.0,12.0,73,0.00,,---,0.00,VWS V14.01,2013-04-19 03:28:00,
2013-04-18 23:33:00,68.3,59.3,29.93,SSE,157,4.0,10.0,73,0.00,,---,0.00,VWS V14.01,2013-04-19 03:33:00,
2013-04-18 23:39:00,68.1,59.5,29.93,SE,126,6.0,10.0,74,0.00,,---,0.00,VWS V14.01,2013-04-19 03:39:00,
2013-04-18 23:44:00,68.0,59.4,29.93,SSE,167,2.0,16.0,74,0.00,,---,0.00,VWS V14.01,2013-04-19 03:44:00,
2013-04-18 23:49:00,68.0,59.8,29.92,SSE,155,2.0,16.0,75,0.00,,---,0.00,VWS V14.01,2013-04-19 03:49:00,
2013-04-18 23:54:00,67.9,59.7,29.92,SSE,150,0.0,14.0,75,0.00,,---,0.00,VWS V14.01,2013-04-19 03:54:00,
2013-04-18 23:59:00,67.7,59.9,29.91,South,183,6.0,14.0,76,0.00,,---,0.00,VWS V14.01,2013-04-19 03:59:00,